Location: Newark
(45.5000°N, 11.4167°E)
Time: 16:12:56
(UTC+00:00)

Transit 2A Rocket - Pass Details

Date: 02 September 2019
Orbit: 592 x 911 km, 66.7° (Epoch: 14 September)

Event Time Altitude Azimuth Distance (km) Brightness Sun altitude
Rises 16:57:22 0° 240° (WSW) 3,391 9.4 8.5°
Reaches altitude 10° 17:00:09 10° 250° (WSW) 2,411 9.1 8.0°
Maximum altitude 17:05:06 33° 313° (NW) 1,292 7.0 7.1°
Drops below altitude 10° 17:09:42 10° 17° (NNE) 2,228 7.3 6.3°
Sets 17:12:11 0° 28° (NNE) 3,097 7.9 5.9°
